Weather in Kulyabovka

Russia / Tambov Oblast     51°46′55″N   42°22′05″E
temp.,
°C
wind,
m/s
gust,
m/s
humid.,
%
clouds,
%
prec.,
mm/h
press.,
hPa
HPBL,
m
26 february, fri
fri2600:00+1wnw51098100 0.0 1016300
03:00+1w3699100 0.0 1016148
06:00+1w389999 0.0 1016217
09:00+1wsw48100100 0.3 1014156
12:00+2wsw49100100 0.9 1013185
15:00+3wsw715100100 0.9 1012356
18:00+3w71698100 0.3 1010443
21:00+2wsw61599100 0.4 1009401
27 february, sat
sat2700:00+2w61296100 0.1 1007438
03:00+1w61292100 0.1 1008473
06:00+1w61392100 0.0 1006603
09:00+1w61293100 0.0 1006669
12:00+1w71294100 0.0 1005757
15:00+1wnw81494100 0.1 1005730
18:000nw7139598 0.3 1007714
21:00−6nnw5128981 0.4 1009539
28 february, sun
sun2800:00−8nnw499152 0.0 1010529
03:00−9nnw499043 0.0 1013472
06:00−10nnw489126 0.0 1014438
09:00−10nnw478857 0.0 1015470
12:00−9nnw468684 0.0 1016511
15:00−8nw468690 0.0 1016542
18:00−9nw3692100 0.0 1017291
21:00−8nnw369394 0.1 1019362
1 march, mon
mon100:00−10n229587 0.0 102154
03:00−11n239445 0.0 102261
06:00−12n23940 0.0 102379
09:00−11n24910 0.0 1025225
12:00−8nnw248467 0.0 1026464
15:00−7nw348683 0.0 1027443
18:00−9wnw239488 0.0 102749
21:00−9w239453 0.0 102751
2 march, tue
tue200:00−7wsw4109549 0.0 1025247
03:00−5wsw6139274 0.0 1022375
06:00−3wsw61395100 0.1 1019457
09:00−1w61294100 0.4 1016428
12:00+1wnw71393100 0.2 1015616
15:000wnw61198100 0.3 1013629
18:000nw71397100 0.2 1013640
21:00−1nw6139098 0.4 1014444